MST,Max TemperatureF,Mean TemperatureF,Min TemperatureF,Max Dew PointF,MeanDew PointF,Min DewpointF,Max Humidity, Mean Humidity, Min Humidity, Max Sea Level PressureIn, Mean Sea Level PressureIn, Min Sea Level PressureIn, Max VisibilityMiles, Mean VisibilityMiles, Min VisibilityMiles, Max Wind SpeedMPH, Mean Wind SpeedMPH, Max Gust SpeedMPH,PrecipitationIn, CloudCover, Events, WindDirDegrees
2013-1-1,53,42,30,30,27,21,92,60,28,30.25,30.17,30.09,10,10,10,12,4,16,0.00,0,,148
2013-1-2,61,48,34,30,24,20,75,49,22,30.10,30.01,29.94,10,10,10,24,7,33,0.00,0,,81
2013-1-3,60,45,30,31,26,21,85,56,26,30.14,30.04,29.97,10,10,10,23,9,32,0.00,1,,107
2013-1-4,58,49,40,29,27,25,60,44,28,30.26,30.20,30.14,10,10,10,24,10,31,0.00,1,,102
2013-1-5,63,47,30,30,24,12,85,50,14,30.32,30.23,30.18,10,10,10,10,3,13,0.00,0,,105
2013-1-6,66,52,38,25,20,14,49,31,13,30.20,30.04,29.92,10,10,10,20,9,23,0.00,0,,144
2013-1-7,57,44,31,27,26,23,78,53,27,29.94,29.88,29.80,10,10,10,15,5,18,0.00,0,,274
2013-1-8,62,46,30,27,24,21,78,50,22,30.09,30.00,29.89,10,10,10,8,3,13,0.00,0,,174
2013-1-9,70,52,34,24,18,11,59,35,10,30.22,30.09,30.01,10,10,9,22,9,26,0.00,0,Snow,126
2013-1-10,67,53,39,37,21,17,45,30,15,29.99,29.88,29.77,10,10,10,26,12,33,0.00,1,,171
2013-1-11,54,43,31,37,22,8,89,56,23,30.05,29.99,29.91,10,10,5,22,6,30,0.03,3,Rain,279
2013-1-12,47,36,25,18,12,5,68,43,17,30.11,30.05,29.99,10,10,10,16,5,24,0.00,1,,171
2013-1-13,48,36,23,13,9,2,60,38,15,30.14,30.07,29.99,10,10,10,13,5,20,0.00,0,,150
2013-1-14,44,33,21,12,5,-1,62,41,19,30.21,30.13,30.06,10,10,10,16,6,21,0.00,0,,229
2013-1-15,47,32,17,6,1,-7,56,33,10,30.39,30.32,30.21,10,10,10,12,3,16,0.00,0,,145
2013-1-16,59,42,24,13,6,-1,50,30,10,30.37,30.28,30.19,10,10,10,22,5,26,0.00,0,,44
2013-1-17,69,57,44,16,10,7,24,17,10,30.23,30.15,30.07,10,10,10,31,15,40,0.00,0,,108
2013-1-18,75,58,40,21,15,5,34,21,7,30.20,30.13,30.04,10,10,10,17,6,21,0.00,0,,134
2013-1-19,75,57,39,23,18,10,40,24,8,30.20,30.13,30.07,10,10,10,13,7,15,0.00,0,,161
2013-1-20,77,60,42,28,25,23,45,31,16,30.13,30.06,29.97,10,10,10,14,6,17,0.00,0,,132
2013-1-21,80,62,44,32,29,27,53,35,17,30.08,30.02,29.95,10,10,10,13,6,17,0.00,0,,176
2013-1-22,81,64,46,33,30,25,53,33,13,30.14,30.09,30.01,10,10,10,13,6,18,0.00,0,,124
2013-1-23,80,63,46,32,29,27,49,32,15,30.18,30.11,30.04,10,10,10,18,7,20,0.00,0,,153
2013-1-24,65,61,56,51,43,32,80,57,34,30.22,30.16,30.12,10,10,10,12,5,14,0.01,5,Rain,151
2013-1-25,77,64,51,50,45,42,83,57,31,30.16,30.04,29.94,10,10,10,12,4,14,0.00,2,,165
2013-1-26,69,62,55,57,53,47,100,73,45,30.02,29.93,29.86,10,8,1,22,5,28,0.71,6,Rain,216
2013-1-27,66,58,49,53,48,43,96,69,42,30.06,29.95,29.89,10,10,10,15,6,18,0.00,6,,190
2013-1-28,58,50,41,48,40,30,77,64,50,30.01,29.93,29.88,10,9,3,24,10,31,0.06,6,Rain,263
2013-1-29,52,44,36,35,26,17,79,53,26,30.19,30.09,30.01,10,10,10,22,10,28,T,2,,267
2013-1-30,57,45,33,29,23,15,82,51,19,30.33,30.25,30.19,10,10,10,12,4,18,0.00,0,,232
2013-1-31,62,47,32,35,29,24,76,51,25,30.25,30.16,30.09,10,10,10,13,4,14,0.00,0,,2